TimeCDT,TemperatureF,Dew PointF,Humidity,Sea Level PressureIn,VisibilityMPH,Wind Direction,Wind SpeedMPH,Gust SpeedMPH,PrecipitationIn,Events,Conditions,WindDirDegrees,DateUTC
12:15 AM,48.2,41.0,76,29.97,10.0,Calm,Calm,-,N/A,,Clear,0,2013-09-24 05:15:00
12:35 AM,48.2,41.0,76,29.97,10.0,Calm,Calm,-,N/A,,Clear,0,2013-09-24 05:35:00
12:55 AM,48.2,39.2,71,29.97,10.0,Calm,Calm,-,N/A,,Clear,0,2013-09-24 05:55:00
1:15 AM,48.2,39.2,71,29.98,10.0,Calm,Calm,-,N/A,,Clear,0,2013-09-24 06:15:00
1:55 AM,46.4,39.2,76,29.99,10.0,Calm,Calm,-,N/A,,Clear,0,2013-09-24 06:55:00
2:15 AM,46.4,37.4,71,29.99,10.0,Calm,Calm,-,N/A,,Clear,0,2013-09-24 07:15:00
2:35 AM,46.4,37.4,71,29.99,10.0,Calm,Calm,-,N/A,,Clear,0,2013-09-24 07:35:00
2:55 AM,46.4,37.4,71,29.99,10.0,Calm,Calm,-,N/A,,Clear,0,2013-09-24 07:55:00
3:15 AM,46.4,37.4,71,30.00,10.0,Calm,Calm,-,N/A,,Clear,0,2013-09-24 08:15:00
3:55 AM,46.4,37.4,71,30.00,6.0,Calm,Calm,-,N/A,,Haze,0,2013-09-24 08:55:00
4:15 AM,44.6,37.4,76,30.01,10.0,Calm,Calm,-,N/A,,Clear,0,2013-09-24 09:15:00
4:35 AM,44.6,35.6,71,30.01,10.0,SW,3.5,-,N/A,,Clear,230,2013-09-24 09:35:00
4:55 AM,44.6,35.6,71,30.01,10.0,West,4.6,-,N/A,,Clear,260,2013-09-24 09:55:00
5:15 AM,44.6,35.6,71,30.01,10.0,Calm,Calm,-,N/A,,Clear,0,2013-09-24 10:15:00
5:35 AM,42.8,35.6,76,30.02,10.0,Calm,Calm,-,N/A,,Clear,0,2013-09-24 10:35:00
5:55 AM,44.6,35.6,71,30.02,10.0,Calm,Calm,-,N/A,,Clear,0,2013-09-24 10:55:00
6:15 AM,42.8,35.6,76,30.02,10.0,Calm,Calm,-,N/A,,Clear,0,2013-09-24 11:15:00
6:35 AM,42.8,35.6,76,30.03,10.0,Calm,Calm,-,N/A,,Clear,0,2013-09-24 11:35:00
6:55 AM,42.8,35.6,76,30.03,10.0,Calm,Calm,-,N/A,,Clear,0,2013-09-24 11:55:00
7:15 AM,44.6,35.6,71,30.03,10.0,SW,6.9,-,N/A,,Clear,220,2013-09-24 12:15:00
7:35 AM,44.6,37.4,76,30.04,10.0,SSW,5.8,-,N/A,,Clear,200,2013-09-24 12:35:00
7:55 AM,46.4,37.4,71,30.04,10.0,Calm,Calm,-,N/A,,Clear,0,2013-09-24 12:55:00
8:15 AM,48.2,37.4,66,30.04,10.0,Calm,Calm,-,N/A,,Clear,0,2013-09-24 13:15:00
8:35 AM,50.0,41.0,71,30.04,10.0,Calm,Calm,-,N/A,,Clear,0,2013-09-24 13:35:00
8:55 AM,53.6,39.2,58,30.04,10.0,Calm,Calm,-,N/A,,Clear,0,2013-09-24 13:55:00
9:15 AM,55.4,41.0,58,30.04,10.0,SE,4.6,-,N/A,,Clear,130,2013-09-24 14:15:00
9:35 AM,59.0,41.0,51,30.04,10.0,ESE,4.6,-,N/A,,Clear,110,2013-09-24 14:35:00
9:55 AM,60.8,42.8,52,30.04,10.0,ENE,5.8,-,N/A,,Clear,70,2013-09-24 14:55:00
10:15 AM,62.6,41.0,45,30.03,10.0,NE,6.9,-,N/A,,Clear,40,2013-09-24 15:15:00
10:35 AM,64.4,39.2,40,30.03,10.0,NE,6.9,-,N/A,,Clear,50,2013-09-24 15:35:00
10:55 AM,64.4,39.2,40,30.02,10.0,NE,8.1,-,N/A,,Clear,50,2013-09-24 15:55:00
11:15 AM,64.4,39.2,40,30.02,10.0,ENE,5.8,-,N/A,,Clear,60,2013-09-24 16:15:00
11:35 AM,66.2,42.8,43,30.01,10.0,ENE,10.4,-,N/A,,Clear,70,2013-09-24 16:35:00
12:15 PM,68.0,42.8,40,29.99,10.0,ENE,12.7,-,N/A,,Clear,70,2013-09-24 17:15:00
12:35 PM,68.0,44.6,43,29.99,10.0,NE,13.8,18.4,N/A,,Clear,40,2013-09-24 17:35:00
12:55 PM,68.0,44.6,43,29.97,10.0,ENE,12.7,-,N/A,,Clear,60,2013-09-24 17:55:00
1:15 PM,69.8,44.6,40,29.96,10.0,NE,13.8,17.3,N/A,,Clear,50,2013-09-24 18:15:00
1:35 PM,71.6,41.0,33,29.94,10.0,East,10.4,19.6,N/A,,Clear,80,2013-09-24 18:35:00
1:55 PM,71.6,39.2,31,29.92,10.0,ESE,9.2,21.9,N/A,,Clear,120,2013-09-24 18:55:00
2:15 PM,73.4,39.2,29,29.92,10.0,West,9.2,-,N/A,,Clear,270,2013-09-24 19:15:00
2:35 PM,73.4,37.4,27,29.91,10.0,WSW,12.7,18.4,N/A,,Clear,240,2013-09-24 19:35:00
2:55 PM,73.4,37.4,27,29.90,10.0,WSW,12.7,18.4,N/A,,Clear,240,2013-09-24 19:55:00
3:15 PM,73.4,37.4,27,29.90,10.0,SW,8.1,-,N/A,,Clear,230,2013-09-24 20:15:00
3:35 PM,73.4,35.6,25,29.89,10.0,West,12.7,18.4,N/A,,Clear,260,2013-09-24 20:35:00
3:55 PM,73.4,35.6,25,29.89,10.0,WSW,12.7,19.6,N/A,,Clear,250,2013-09-24 20:55:00
4:15 PM,73.4,35.6,25,29.88,10.0,WSW,10.4,18.4,N/A,,Clear,240,2013-09-24 21:15:00
4:35 PM,73.4,35.6,25,29.87,10.0,West,9.2,-,N/A,,Clear,270,2013-09-24 21:35:00
4:55 PM,73.4,35.6,25,29.86,10.0,West,5.8,-,N/A,,Clear,280,2013-09-24 21:55:00
5:15 PM,73.4,39.2,29,29.86,10.0,South,9.2,-,N/A,,Clear,170,2013-09-24 22:15:00
5:35 PM,73.4,37.4,27,29.85,10.0,South,12.7,-,N/A,,Clear,180,2013-09-24 22:35:00
5:55 PM,71.6,37.4,29,29.85,10.0,SSE,12.7,-,N/A,,Clear,160,2013-09-24 22:55:00
6:15 PM,69.8,37.4,31,29.84,10.0,SSE,6.9,-,N/A,,Clear,150,2013-09-24 23:15:00
6:35 PM,66.2,39.2,37,29.84,10.0,SSE,8.1,-,N/A,,Clear,150,2013-09-24 23:35:00
6:55 PM,62.6,41.0,45,29.83,10.0,SSE,6.9,-,N/A,,Clear,150,2013-09-24 23:55:00
7:15 PM,62.6,39.2,42,29.82,10.0,SE,8.1,-,N/A,,Clear,130,2013-09-25 00:15:00
7:35 PM,55.4,41.0,58,29.81,10.0,SE,6.9,-,N/A,,Clear,140,2013-09-25 00:35:00
7:55 PM,55.4,41.0,58,29.80,10.0,SSE,4.6,-,N/A,,Clear,150,2013-09-25 00:55:00
8:15 PM,59.0,39.2,48,29.80,10.0,ESE,8.1,-,N/A,,Clear,120,2013-09-25 01:15:00
8:35 PM,60.8,39.2,45,29.81,10.0,SE,6.9,-,N/A,,Clear,140,2013-09-25 01:35:00
8:55 PM,62.6,39.2,42,29.80,10.0,East,11.5,-,N/A,,Clear,90,2013-09-25 01:55:00
9:15 PM,62.6,39.2,42,29.79,10.0,East,13.8,-,N/A,,Clear,90,2013-09-25 02:15:00
9:35 PM,66.2,39.2,37,29.78,10.0,South,17.3,25.3,N/A,,Clear,170,2013-09-25 02:35:00
9:55 PM,66.2,39.2,37,29.77,10.0,South,19.6,32.2,N/A,,Clear,190,2013-09-25 02:55:00
10:15 PM,66.2,39.2,37,29.76,10.0,South,28.8,36.8,N/A,,Clear,180,2013-09-25 03:15:00
10:35 PM,66.2,39.2,37,29.75,10.0,South,26.5,38.0,N/A,,Clear,190,2013-09-25 03:35:00
10:55 PM,66.2,39.2,37,29.75,10.0,South,27.6,39.1,N/A,,Clear,190,2013-09-25 03:55:00
11:15 PM,66.2,39.2,37,29.75,10.0,South,24.2,36.8,N/A,,Clear,190,2013-09-25 04:15:00
11:35 PM,66.2,39.2,37,29.74,10.0,South,25.3,36.8,N/A,,Clear,190,2013-09-25 04:35:00
11:55 PM,66.2,39.2,37,29.74,10.0,South,21.9,33.4,N/A,,Clear,180,2013-09-25 04:55:00